Tracking 18850 objects as of 22-Nov-2017
HD Live streaming from Space Station
objects crossing your sky now

COSMOS 1459

Track COSMOS 1459 now!
10-day predictions
COSMOS 1459 is classified as:


NORAD ID: 14057
Int'l Code: 1983-042A
Perigee: 947.9 km
Apogee: 1,018.8 km
Inclination: 83.0 °
Period: 104.6 minutes
Semi major axis: 7354 km
RCS: 2.2747 m2 (large)
Launch date: May 6, 1983
Source: Commonwealth of Independent States (former USSR) (CIS)
Launch site: PLESETSK MISSILE AND SPACE COMPLEX (PKMTR)
aabbcc
Your satellite tracking list
Your tracking list is empty




NASA's NSSDC Master Catalog

Two Line Element Set (TLE):
1 14057U 83042A   17325.18061483  .00000031  00000-0  16858-4 0  9999
2 14057  82.9713 335.0087 0048187 302.8564  56.7958 13.76529203735341
Source of the keplerian elements: AFSPC